TimeCDT,TemperatureF,Dew PointF,Humidity,Sea Level PressureIn,VisibilityMPH,Wind Direction,Wind SpeedMPH,Gust SpeedMPH,PrecipitationIn,Events,Conditions,WindDirDegrees,DateUTC
12:53 AM,63.0,39.9,43,29.94,-9999.0,NNE,6.9,-,N/A,,Unknown,30,2012-10-19 05:53:00
1:53 AM,62.1,39.0,43,29.94,-9999.0,NNE,6.9,-,N/A,,Unknown,30,2012-10-19 06:53:00
2:53 AM,61.0,39.0,44,29.94,-9999.0,NNE,8.1,-,N/A,,Unknown,20,2012-10-19 07:53:00
3:53 AM,60.1,37.9,44,29.92,-9999.0,NNE,8.1,-,N/A,,Unknown,20,2012-10-19 08:53:00
4:53 AM,60.1,39.9,47,29.92,-9999.0,NNE,6.9,-,N/A,,Unknown,30,2012-10-19 09:53:00
5:53 AM,59.0,39.9,49,29.91,-9999.0,NNE,5.8,-,N/A,,Unknown,30,2012-10-19 10:53:00
6:53 AM,57.9,39.9,51,29.94,-9999.0,North,8.1,-,N/A,,Unknown,10,2012-10-19 11:53:00
7:53 AM,57.0,41.0,55,29.96,-9999.0,North,6.9,-,N/A,,Unknown,10,2012-10-19 12:53:00
8:53 AM,62.1,42.1,48,29.98,-9999.0,NNE,6.9,-,N/A,,Unknown,30,2012-10-19 13:53:00
9:53 AM,64.9,42.1,43,29.99,-9999.0,ENE,9.2,-,N/A,,Unknown,70,2012-10-19 14:53:00
10:53 AM,69.1,43.0,39,30.00,-9999.0,ESE,9.2,-,N/A,,Unknown,110,2012-10-19 15:53:00
11:53 AM,73.0,44.1,35,29.98,-9999.0,ESE,9.2,-,N/A,,Unknown,120,2012-10-19 16:53:00
12:53 PM,75.9,45.0,33,29.96,-9999.0,SE,9.2,-,N/A,,Unknown,140,2012-10-19 17:53:00
1:53 PM,79.0,45.0,30,29.91,-9999.0,East,9.2,-,N/A,,Unknown,90,2012-10-19 18:53:00
2:53 PM,81.0,46.0,29,29.88,-9999.0,SE,6.9,-,N/A,,Unknown,140,2012-10-19 19:53:00
3:53 PM,82.9,46.9,28,29.85,-9999.0,ESE,9.2,-,N/A,,Unknown,110,2012-10-19 20:53:00
4:53 PM,82.9,48.0,29,29.83,-9999.0,SE,10.4,-,N/A,,Unknown,130,2012-10-19 21:53:00
5:53 PM,82.9,48.9,31,29.82,-9999.0,ESE,9.2,-,N/A,,Unknown,120,2012-10-19 22:53:00
6:53 PM,80.1,50.0,35,29.83,-9999.0,ESE,8.1,-,N/A,,Unknown,120,2012-10-19 23:53:00
7:53 PM,73.9,53.1,48,29.85,-9999.0,East,6.9,-,N/A,,Unknown,100,2012-10-20 00:53:00
8:53 PM,72.0,53.1,51,29.85,-9999.0,East,4.6,-,N/A,,Unknown,100,2012-10-20 01:53:00
9:53 PM,69.1,53.1,57,29.85,-9999.0,NE,4.6,-,N/A,,Unknown,40,2012-10-20 02:53:00
10:53 PM,66.9,52.0,59,29.85,-9999.0,NNE,8.1,-,N/A,,Unknown,20,2012-10-20 03:53:00
11:53 PM,66.0,52.0,60,29.83,-9999.0,NNE,5.8,-,N/A,,Unknown,20,2012-10-20 04:53:00